Tracking 19628 objects as of 27-May-2019
HD Live streaming from Space Station
objects crossing your sky now
Watch Starlink satellites crossing your sky!

DASH 1

Track DASH 1 now!
10-day predictions
DASH 1 is classified as:


NORAD ID: 589
Int'l Code: 1963-014D
Perigee: 3,519.4 km
Apogee: 3,778.4 km
Inclination: 87.3 °
Period: 166.4 minutes
Semi major axis: 10019 km
RCS: 1.0728 m2 (large)
Launch date: May 9, 1963
Source: United States (US)
Launch site: AIR FORCE WESTERN TEST RANGE (AFWTR)
aabbcc
Your satellite tracking list
Your tracking list is empty




NASA's NSSDC Master Catalog

Two Line Element Set (TLE):
1   589U 63014D   19146.74872450  .00000121  00000-0  54790-1 0  9994
2   589  87.3250  77.2524 0129215 136.2944 224.8225  8.65580629770991
Source of the keplerian elements: AFSPC